Date String (YYYY-MM-DD hh:mm:ss) UTC,Instrument flags,Ambient pressure (hPa),Sample flow (lpm),Bypass flow (lpm),Sample temperature (°C),Ambient temperature (°C),ASC tube jacket temperature (°C),LED temperature (°C),Box temperature (°C),Sample RH (%),Span deviation,Mass concentration (μg/m³),Mass concentration (μg/m³),Mass concentration (μg/m³)
DateTimeUTC,F1_M11,P_M11,Q1_M11,Q2_M11,T1_M11,T2_M11,T3_M11,T4_M11,T5_M11,U1_M11,ZSPAN_M11,X2_M11,X0_M11,X1_M11
2022-04-27 08:00:00,,0823.0,5.01,0.00,29.4,28.4,00.0,38.4,31.1,06.0,0004.7,0012.47,0034.18,0005.68
2022-04-27 08:01:00,,0823.0,4.99,0.00,29.4,28.4,00.0,38.4,31.1,05.9,0004.1,0012.47,0035.01,0005.67
2022-04-27 08:02:00,,0823.0,4.99,0.00,29.4,28.4,00.0,38.4,31.1,06.1,0004.0,0012.40,0034.50,0005.64
2022-04-27 08:03:00,,0822.9,5.01,0.00,29.4,28.4,00.0,38.4,31.0,06.2,0002.9,0012.45,0034.72,0005.64
2022-04-27 08:04:00,,0822.9,5.00,0.00,29.4,28.4,00.0,38.4,31.1,06.0,0001.9,0012.44,0034.83,0005.65
2022-04-27 08:05:00,,0823.0,5.02,0.00,29.4,28.4,00.0,38.4,31.1,06.0,0001.5,0012.37,0034.79,0005.67
2022-04-27 08:06:00,,0822.9,4.98,0.00,29.4,28.4,00.0,38.4,31.1,06.0,0001.3,0012.35,0035.88,0005.67
2022-04-27 08:07:00,,0822.9,5.02,0.00,29.4,28.4,00.0,38.4,31.1,05.9,0001.9,0012.41,0035.35,0005.68
2022-04-27 08:08:00,,0822.9,4.98,0.00,29.4,28.4,00.0,38.3,31.1,06.0,0001.9,0012.29,0035.26,0005.66
2022-04-27 08:09:00,,0822.9,5.02,0.00,29.4,28.4,00.0,38.3,31.0,06.3,0001.3,0012.32,0034.62,0005.70
2022-04-27 08:10:00,,0822.9,4.99,0.00,29.3,28.3,00.0,38.3,31.0,06.2,0000.9,0012.30,0034.85,0005.69
2022-04-27 08:11:00,,0822.9,5.00,0.00,29.3,28.3,00.0,38.3,31.0,06.1,0001.3,0012.31,0034.42,0005.70
2022-04-27 08:12:00,,0822.9,5.00,0.00,29.3,28.3,00.0,38.3,31.0,06.1,-000.2,0012.15,0032.75,0005.69
2022-04-27 08:13:00,,0823.0,4.99,0.00,29.3,28.3,00.0,38.3,31.0,06.1,0000.5,0012.15,0032.68,0005.72
2022-04-27 08:14:00,,0822.9,5.02,0.00,29.3,28.3,00.0,38.3,31.0,06.0,0002.9,0012.20,0032.92,0005.74
2022-04-27 08:15:00,,0823.0,5.00,0.00,29.3,28.3,00.0,38.3,31.0,06.0,0004.1,0012.22,0032.94,0005.74
2022-04-27 08:16:00,,0823.0,5.00,0.00,29.3,28.3,00.0,38.3,31.0,06.0,0003.8,0012.28,0033.40,0005.75
2022-04-27 08:17:00,,0823.0,5.02,0.00,29.3,28.3,00.0,38.3,31.0,06.1,0003.2,0012.33,0033.79,0005.75
2022-04-27 08:18:00,,0822.9,4.98,0.00,29.3,28.4,00.0,38.3,31.0,06.3,0002.3,0012.28,0033.74,0005.73
2022-04-27 08:19:00,,0823.0,5.00,0.00,29.3,28.4,00.0,38.3,31.0,06.2,0001.5,0012.34,0034.61,0005.72
2022-04-27 08:20:00,,0822.9,5.01,0.00,29.3,28.4,00.0,38.3,31.0,06.2,0001.6,0012.30,0035.50,0005.71
2022-04-27 08:21:00,,0823.0,4.99,0.00,29.3,28.3,00.0,38.3,31.0,06.2,0002.0,0012.24,0034.94,0005.73
2022-04-27 08:22:00,,0823.0,5.00,0.00,29.3,28.3,00.0,38.3,31.0,06.2,0002.1,0012.28,0036.09,0005.74
2022-04-27 08:23:00,,0823.0,5.00,0.00,29.3,28.3,00.0,38.3,31.0,06.1,0002.7,0012.32,0036.43,0005.72
2022-04-27 08:24:00,,0823.0,5.01,0.00,29.3,28.3,00.0,38.3,31.0,06.0,0002.1,0012.29,0036.07,0005.71
2022-04-27 08:25:00,,0822.9,5.00,0.00,29.3,28.3,00.0,38.3,31.0,06.1,0001.6,0012.30,0036.25,0005.72
2022-04-27 08:26:00,,0823.0,4.98,0.00,29.3,28.4,00.0,38.3,31.0,06.1,0000.4,0012.27,0036.96,0005.73
2022-04-27 08:27:00,,0822.9,5.02,0.00,29.3,28.3,00.0,38.3,31.0,06.1,0001.3,0012.30,0036.75,0005.74
2022-04-27 08:28:00,,0823.0,5.00,0.00,29.3,28.3,00.0,38.3,31.0,06.2,0001.8,0012.34,0035.81,0005.76
2022-04-27 08:29:00,,0822.9,5.00,0.00,29.3,28.3,00.0,38.3,31.0,06.3,0000.8,0012.27,0035.01,0005.78
2022-04-27 08:30:00,,0823.0,5.01,0.00,29.3,28.3,00.0,38.3,31.0,06.2,-000.1,0012.33,0036.08,0005.81
2022-04-27 08:31:00,,0823.0,4.99,0.00,29.3,28.3,00.0,38.3,31.0,06.2,-000.5,0012.34,0036.67,0005.83
2022-04-27 08:32:00,,0822.9,5.01,0.00,29.3,28.3,00.0,38.3,31.0,06.1,-000.8,0012.32,0036.99,0005.83
2022-04-27 08:33:00,,0822.9,4.99,0.00,29.3,28.3,00.0,38.2,31.0,06.1,-000.9,0012.35,0036.18,0005.82
2022-04-27 08:34:00,,0822.8,5.00,0.00,29.3,28.3,00.0,38.2,31.0,06.2,-000.3,0012.34,0035.94,0005.85
2022-04-27 08:35:00,,0822.7,5.02,0.00,29.3,28.3,00.0,38.2,31.0,06.1,0000.3,0012.37,0037.02,0005.88
2022-04-27 08:36:00,,0822.7,4.98,0.00,29.3,28.4,00.0,38.3,31.0,06.1,0000.8,0012.29,0037.06,0005.87
2022-04-27 08:37:00,,0822.7,5.00,0.00,29.3,28.4,00.0,38.3,31.0,06.0,0001.3,0012.26,0037.93,0005.84
2022-04-27 08:38:00,,0822.7,5.03,0.00,29.3,28.4,00.0,38.3,31.0,05.9,0001.4,0012.18,0037.77,0005.84
2022-04-27 08:39:00,,0822.7,4.99,0.00,29.3,28.4,00.0,38.3,31.0,05.9,0001.5,0012.11,0037.75,0005.85
2022-04-27 08:40:00,,0822.7,5.00,0.00,29.3,28.4,00.0,38.3,31.0,05.9,0003.0,0012.06,0038.58,0005.87
2022-04-27 08:41:00,,0822.8,5.01,0.00,29.3,28.4,00.0,38.3,31.0,06.1,0005.2,0012.11,0037.74,0005.91
2022-04-27 08:42:00,,0822.9,4.99,0.00,29.3,28.4,00.0,38.3,31.0,06.1,0005.1,0012.12,0035.98,0005.93
2022-04-27 08:43:00,,0823.0,4.99,0.00,29.3,28.4,00.0,38.3,31.0,06.1,0005.7,0012.13,0035.63,0005.94
2022-04-27 08:44:00,,0822.9,5.02,0.00,29.3,28.4,00.0,38.3,31.0,06.1,0006.6,0012.07,0035.36,0005.95
2022-04-27 08:45:00,,0823.0,4.99,0.00,29.3,28.4,00.0,38.3,31.0,06.1,0006.9,0012.11,0035.56,0005.96
2022-04-27 08:46:00,,0823.0,5.01,0.00,29.3,28.4,00.0,38.3,31.0,06.1,0009.1,0012.20,0035.57,0005.97
2022-04-27 08:47:00,,0823.1,5.00,0.00,29.3,28.4,00.0,38.3,31.0,06.1,0009.1,0012.34,0035.43,0005.97
2022-04-27 08:48:00,,0823.0,4.98,0.00,29.3,28.4,00.0,38.3,31.1,06.1,0010.4,0012.26,0033.44,0005.99
2022-04-27 08:49:00,,0822.9,5.01,0.00,29.3,28.4,00.0,38.3,31.0,06.2,0011.8,0012.29,0034.25,0005.99
2022-04-27 08:50:00,,0822.8,5.00,0.00,29.3,28.4,00.0,38.3,31.0,06.1,0012.0,0012.27,0034.26,0005.98
2022-04-27 08:51:00,,0822.7,4.98,0.00,29.3,28.4,00.0,38.3,31.0,06.1,0007.3,0012.31,0033.26,0005.97
2022-04-27 08:52:00,,0822.7,5.01,0.00,29.3,28.4,00.0,38.3,31.0,06.1,0000.5,0012.30,0033.10,0005.96
2022-04-27 08:53:00,,0822.8,5.00,0.00,29.3,28.4,00.0,38.3,31.0,06.1,0000.8,0012.25,0032.60,0005.94
2022-04-27 08:54:00,,0823.0,5.01,0.00,29.3,28.4,00.0,38.3,31.0,06.1,0002.5,0012.37,0032.57,0005.95
2022-04-27 08:55:00,,0823.1,4.99,0.00,29.3,28.3,00.0,38.3,31.0,06.1,0003.2,0012.39,0033.43,0005.96
2022-04-27 08:56:00,,0823.3,4.98,0.00,29.3,28.3,00.0,38.3,31.0,06.3,0002.7,0012.37,0033.16,0005.96
2022-04-27 08:57:00,,0823.3,5.02,0.00,29.3,28.3,00.0,38.3,31.0,06.4,0004.2,0012.19,0031.84,0005.94
2022-04-27 08:58:00,,0823.3,4.98,0.00,29.3,28.3,00.0,38.3,30.9,06.7,0004.8,0012.13,0031.23,0005.94
2022-04-27 08:59:00,,0823.2,5.00,0.00,29.3,28.3,00.0,38.2,30.9,06.8,0005.0,0012.21,0031.92,0005.93
